User: anonymous   Login
Location: Unspecified
(0.0000°N, 0.0000°E)
Time: 18:33:32
(UTC+00:00)
Language:

Tiangong 2 - Orbit

View from above orbital plane
View from above orbital plane
View from above satellite
View from above satellite

Ground track
Ground track

The orbit data is extracted from the following two-line orbital elements,

1 41765U 16057A   19052.03409722  .00003324  00000-0  43364-4 0  9992
2 41765  42.7846 299.5084 0007231 191.4222  15.2832 15.60731574138885
Epoch (UTC): 21 February 2019 00:49:06
Eccentricity: 0.0007231
inclination: 42.7846°
perigee height: 380 km
apogee height: 390 km
right ascension of ascending node: 299.5084°
argument of perigee: 191.4222°
revolutions per day: 15.60731574
mean anomaly at epoch: 15.2832°
orbit number at epoch: 13888

The dashed part of the orbit path shows where the satellite is in the earth's shadow,  

DLR